Meridian NAS, MS

9:09 PM CST on December 16, 2017 (GMT -0600)
Meridian Naval Air Station

Weather History for KNMM - October, 2013

Change the Weather History Date:

Monday, October 28, 2013

  Actual Average Record
Temperature  
Mean Temperature 64 °F -  
Max Temperature 72 °F 72 °F 89 °F (2016)
Min Temperature 57 °F 50 °F 32 °F (2008)
Degree Days  
Heating Degree Days 1    
Growing Degree Days 14 (Base 50)    
Moisture  
Dew Point 59 °F    
Average Humidity 91    
Maximum Humidity 100    
Minimum Humidity 70    
Precipitation  
Precipitation 0.27 in - - ()
Sea Level Pressure  
Sea Level Pressure 30.21 in    
Wind  
Wind Speed 1 mph (ESE)    
Max Wind Speed 7 mph    
Max Gust Speed -    
Visibility 5 miles    
Events Rain    
Averages and records for this station are not official NWS values.
T = Trace of Precipitation, MM = Missing Value Source: NWS Daily Summary

Daily Weather History Graph

Daily Weather History Graph

Search for Another Location

Airport or City:

Trip Planner

Search our weather history database for the weather conditions in past years. The results will help you decide how hot, cold, wet, or windy it might be!

Date:

Astronomy

Oct. 28, 2013 Rise Set
Actual Time 7:08 AM CDT 6:07 PM CDT
Civil Twilight 6:43 AM CDT 6:32 PM CDT
Nautical Twilight 6:14 AM CDT 7:01 PM CDT
Astronomical Twilight 5:45 AM CDT 7:29 PM CDT
Moon 1:20 AM CDT (10/28) 2:31 PM CDT (10/28)
Length of Visible Light 11h 48m
Length of Day
10h 58m
Waning Crescent, 34% of the Moon is Illuminated
Oct 28
Waning Crescent
Nov 3
New
Nov 9
First Quarter
Nov 17
Full
Nov 25
Last Quarter

Hourly Weather History & Observations

Time (CDT) Temp. Dew Point Humidity Pressure Visibility Wind Dir Wind Speed Gust Speed Precip Events Conditions
12:56 AM 57.9 °F 55.0 °F 90% 30.14 in 10.0 mi Calm Calm - 0.01 in Rain Light Rain
1:56 AM 57.9 °F 55.9 °F 93% 30.14 in 3.0 mi Calm Calm - 0.02 in Rain Rain
2:56 AM 57.9 °F 55.9 °F 93% 30.14 in 9.0 mi Calm Calm - 0.04 in   Overcast
3:56 AM 57.9 °F 55.9 °F 93% 30.14 in 6.0 mi ESE 3.5 mph - N/A   Overcast
4:56 AM 57.9 °F 55.9 °F 93% 30.15 in 6.0 mi Calm Calm - N/A   Mostly Cloudy
5:56 AM 57.0 °F 55.0 °F 93% 30.18 in 3.0 mi NNW 3.5 mph - N/A   Overcast
6:04 AM 57.2 °F 55.4 °F 94% 30.15 in 2.5 mi Calm Calm - N/A   Overcast
6:17 AM 57.2 °F 55.4 °F 94% 30.15 in 4.0 mi Calm Calm - N/A   Overcast
6:56 AM 57.0 °F 55.9 °F 96% 30.20 in 3.0 mi Calm Calm - N/A   Overcast
7:00 AM 57.2 °F 55.4 °F 94% 30.17 in 4.0 mi Calm Calm - N/A   Overcast
7:49 AM 57.2 °F 55.4 °F 94% 30.18 in 2.0 mi Calm Calm - N/A   Overcast
7:56 AM 57.0 °F 55.9 °F 96% 30.22 in 1.5 mi Calm Calm - 0.00 in Rain Light Rain
8:11 AM 57.2 °F 55.4 °F 94% 30.19 in 3.0 mi Calm Calm - 0.00 in Rain Light Rain
8:22 AM 57.2 °F 57.2 °F 100% 30.20 in 1.5 mi Calm Calm - 0.00 in Rain Light Rain
8:56 AM 59.0 °F 57.0 °F 93% 30.25 in 1.0 mi Calm Calm - 0.02 in Rain Light Rain
9:22 AM 60.8 °F 57.2 °F 88% 30.22 in 2.5 mi SSE 4.6 mph - 0.01 in   Overcast
9:30 AM 60.8 °F 59.0 °F 94% 30.22 in 3.0 mi Calm Calm - 0.01 in   Overcast
9:56 AM 61.0 °F 59.0 °F 93% 30.26 in 3.0 mi Calm Calm - 0.01 in Rain Light Rain
10:04 AM 60.8 °F 59.0 °F 94% 30.23 in 2.5 mi Calm Calm - 0.00 in Rain Light Rain
10:35 AM 60.8 °F 59.0 °F 94% 30.24 in 1.2 mi SSW 3.5 mph - 0.06 in Rain Rain
10:46 AM 60.8 °F 59.0 °F 94% 30.23 in 1.0 mi Calm Calm - 0.11 in Rain Rain
10:56 AM 62.1 °F 60.1 °F 93% 30.26 in 1.0 mi Calm Calm - 0.14 in Rain Rain
11:30 AM 62.6 °F 60.8 °F 94% 30.23 in 2.0 mi SE 3.5 mph - 0.01 in Rain Light Rain
11:49 AM 62.6 °F 60.8 °F 94% 30.23 in 2.0 mi SSE 3.5 mph - 0.02 in Rain Light Rain
11:56 AM 63.0 °F 61.0 °F 93% 30.26 in 2.0 mi SE 3.5 mph - 0.02 in Rain Light Rain
12:51 PM 64.4 °F 62.6 °F 94% 30.21 in 2.5 mi ESE 4.6 mph - 0.01 in   Overcast
12:56 PM 64.0 °F 61.0 °F 90% 30.24 in 2.5 mi ESE 4.6 mph - 0.01 in   Overcast
1:26 PM 64.4 °F 62.6 °F 94% 30.20 in 10.0 mi SE 3.5 mph - N/A   Overcast
1:47 PM 66.2 °F 62.6 °F 88% 30.19 in 10.0 mi Calm Calm - N/A   Overcast
1:56 PM 68.0 °F 63.0 °F 84% 30.21 in 10.0 mi Calm Calm - N/A   Mostly Cloudy
2:56 PM 70.0 °F 62.1 °F 76% 30.20 in 10.0 mi East 4.6 mph - N/A   Mostly Cloudy
3:56 PM 71.1 °F 61.0 °F 70% 30.19 in 10.0 mi ENE 3.5 mph - N/A   Scattered Clouds
4:56 PM 70.0 °F 63.0 °F 78% 30.20 in 10.0 mi East 6.9 mph - N/A   Partly Cloudy
5:56 PM 66.9 °F 63.0 °F 87% 30.21 in 10.0 mi ENE 4.6 mph - N/A   Partly Cloudy
6:56 PM 64.0 °F 62.1 °F 93% 30.22 in 10.0 mi Calm Calm - N/A   Partly Cloudy
7:56 PM 63.0 °F 61.0 °F 93% 30.23 in 10.0 mi ENE 5.8 mph - N/A   Scattered Clouds
8:56 PM 63.0 °F 61.0 °F 93% 30.24 in 10.0 mi East 3.5 mph - N/A   Mostly Cloudy
9:56 PM 63.0 °F 61.0 °F 93% 30.25 in 10.0 mi Calm Calm - N/A   Overcast
10:56 PM 62.1 °F 60.1 °F 93% 30.26 in 10.0 mi Calm Calm - N/A   Mostly Cloudy
11:56 PM 62.1 °F 60.1 °F 93% 30.26 in 10.0 mi SE 4.6 mph - N/A   Overcast